sat.trackr.live / text

‹ back to catalog

STARLINK-4330

NORAD 53080 · 2022-077AP

PAYLOAD ACTIVE UNKNOWN

§ Identity

Operator
Country
US
Launch date
2022-07-11
Launch site
AFWTR
Launch vehicle
Mass (kg)
RCS (m²)

Purposes: comms

External: N2YO · Heavens-Above · Gunter

§ Orbital elements

Epoch: 2026-05-25T04:28:37.912224Z

Period
95.64 min
Inclination
97.4466°
Eccentricity
0.0000847
Mean motion
15.05641085 rev/d
Perigee alt
549.0 km
Apogee alt
550.1 km
Semi-major
6,927.7 km
B*
1.8934e-4
RAAN
326.2233°
Arg perigee
122.5550°
Mean anomaly
237.5759°
Rev number
21,249

§ Raw data

STARLINK-43301 53080U 22077AP  26145.18654991  .00002674  00000+0  18934-3 0  99912 53080  97.4466 326.2233 0000847 122.5550 237.5759 15.05641085212495

JSON: /api/v1/satellites/53080 · /tle

For live sub-satellite position, see the globe view (requires WebGL).

§ Visibility from observer

Set your observer location to see the next 7 days of passes ≥ 10°. The values pass through the URL so the page stays shareable.

No JS? Fill the form by hand. The geolocation button needs JavaScript.